Location: Downe
(51.3167°N, 0.0500°E)
Time: 08:33:31
(UTC+00:00)

Meteor PRIRODA - Pass Details

Date: 17 November 2019
Orbit: 490 x 512 km, 97.5° (Epoch: 10 December)

Event Time Altitude Azimuth Distance (km) Brightness Sun altitude
Rises 04:56:20 0° 15° (NNE) 2,610 7.4 -22.1°
Reaches altitude 10° 04:58:26 10° 17° (NNE) 1,716 6.5 -21.8°
Maximum altitude 05:02:07 71° 102° (ESE) 531 3.8 -21.2°
Drops below altitude 10° 05:05:45 10° 187° (S) 1,690 6.3 -20.7°
Sets 05:07:49 0° 190° (S) 2,564 7.2 -20.3°
